Meteo pe oră la Bolshie Vorobevichi

Astăzi, 18 Mai, Marţi

Timp Temperatura Precipitaţii Vânt Presiune Umiditate
00:00 +13°C° 0 mm 2 m/s 738 mmHg 96%
01:00 +13°C° 0 mm 2 m/s 738 mmHg 97%
02:00 +12°C° 0 mm 2 m/s 738 mmHg 97%
03:00 +12°C° 0 mm 2 m/s 737 mmHg 97%
04:00 +12°C° 0 mm 2 m/s 737 mmHg 97%
05:00 +12°C° 0 mm 2 m/s 737 mmHg 98%
06:00 +13°C° 0.1 mm 2 m/s 737 mmHg 96%
07:00 +13°C° 0.1 mm 2 m/s 737 mmHg 95%
08:00 +14°C° 0.1 mm 2 m/s 737 mmHg 94%
09:00 +14°C° 0.5 mm 2 m/s 737 mmHg 94%
10:00 +14°C° 0.5 mm 2 m/s 737 mmHg 94%
11:00 +14°C° 0.5 mm 2 m/s 737 mmHg 94%
12:00 +14°C° 0.2 mm 2 m/s 737 mmHg 94%
13:00 +14°C° 0.2 mm 2 m/s 737 mmHg 94%
14:00 +13°C° 0.2 mm 3 m/s 737 mmHg 94%
15:00 +13°C° 0 mm 3 m/s 737 mmHg 94%
16:00 +13°C° 0 mm 3 m/s 736 mmHg 95%
17:00 +13°C° 0 mm 3 m/s 736 mmHg 95%
18:00 +13°C° 0 mm 3 m/s 736 mmHg 95%
19:00 +12°C° 0 mm 3 m/s 736 mmHg 96%
20:00 +12°C° 0 mm 3 m/s 737 mmHg 96%
21:00 +12°C° 0 mm 3 m/s 737 mmHg 96%
22:00 +12°C° 0 mm 3 m/s 737 mmHg 96%
23:00 +11°C° 0 mm 4 m/s 736 mmHg 96%

Mâine, 19 Mai, Miercuri

Timp Temperatura Precipitaţii Vânt Presiune Umiditate
00:00 +11°C° 0 mm 4 m/s 737 mmHg 96%
01:00 +11°C° 0 mm 4 m/s 737 mmHg 96%
02:00 +11°C° 0 mm 4 m/s 737 mmHg 96%
03:00 +10°C° 0.3 mm 4 m/s 737 mmHg 96%
04:00 +10°C° 0.3 mm 4 m/s 737 mmHg 96%
05:00 +10°C° 0.3 mm 4 m/s 737 mmHg 95%
06:00 +10°C° 0.1 mm 4 m/s 738 mmHg 94%
07:00 +9°C° 0.1 mm 5 m/s 738 mmHg 92%
08:00 +9°C° 0.1 mm 5 m/s 739 mmHg 91%
09:00 +12°C° 0 mm 5 m/s 739 mmHg 83%
10:00 +13°C° 0 mm 5 m/s 740 mmHg 76%
11:00 +14°C° 0 mm 6 m/s 740 mmHg 69%
12:00 +15°C° 0 mm 5 m/s 740 mmHg 67%
13:00 +15°C° 0 mm 5 m/s 741 mmHg 65%
14:00 +15°C° 0 mm 5 m/s 741 mmHg 63%
15:00 +15°C° 0.1 mm 4 m/s 741 mmHg 66%
16:00 +15°C° 0.1 mm 4 m/s 741 mmHg 68%
17:00 +16°C° 0.1 mm 3 m/s 742 mmHg 70%
18:00 +13°C° 0.1 mm 3 m/s 742 mmHg 75%
19:00 +13°C° 0.1 mm 2 m/s 742 mmHg 81%
20:00 +12°C° 0.1 mm 1 m/s 743 mmHg 86%
21:00 +12°C° 0 mm 1 m/s 743 mmHg 88%
22:00 +10°C° 0 mm 2 m/s 743 mmHg 90%
23:00 +9°C° 0 mm 2 m/s 743 mmHg 92%

Poimâine, 20 Mai, Joi

Timp Temperatura Precipitaţii Vânt Presiune Umiditate
00:00 +9°C° 0 mm 2 m/s 743 mmHg 94%
01:00 +9°C° 0 mm 2 m/s 743 mmHg 95%
02:00 +8°C° 0 mm 3 m/s 743 mmHg 96%
03:00 +8°C° 0 mm 3 m/s 743 mmHg 97%
04:00 +8°C° 0 mm 3 m/s 743 mmHg 97%
05:00 +8°C° 0 mm 3 m/s 743 mmHg 98%
06:00 +8°C° 0 mm 4 m/s 743 mmHg 95%
07:00 +8°C° 0 mm 4 m/s 743 mmHg 93%
08:00 +9°C° 0 mm 5 m/s 743 mmHg 90%
09:00 +9°C° 0 mm 5 m/s 743 mmHg 87%
10:00 +10°C° 0 mm 5 m/s 743 mmHg 83%
11:00 +12°C° 0 mm 5 m/s 743 mmHg 79%
12:00 +12°C° 0.1 mm 5 m/s 743 mmHg 78%
13:00 +13°C° 0.1 mm 5 m/s 743 mmHg 76%
14:00 +13°C° 0.1 mm 5 m/s 743 mmHg 74%
15:00 +13°C° 0.1 mm 5 m/s 743 mmHg 75%
16:00 +13°C° 0.1 mm 5 m/s 743 mmHg 76%
17:00 +13°C° 0.1 mm 5 m/s 742 mmHg 76%
18:00 +12°C° 0.1 mm 5 m/s 742 mmHg 78%
19:00 +12°C° 0.1 mm 5 m/s 742 mmHg 81%
20:00 +10°C° 0.1 mm 5 m/s 742 mmHg 83%
21:00 +10°C° 0 mm 5 m/s 743 mmHg 83%
22:00 +9°C° 0 mm 6 m/s 743 mmHg 84%
23:00 +9°C° 0 mm 6 m/s 743 mmHg 85%

21 Mai, Vineri

Timp Temperatura Precipitaţii Vânt Presiune Umiditate
00:00 +9°C° 0 mm 6 m/s 743 mmHg 84%
01:00 +8°C° 0 mm 6 m/s 743 mmHg 84%
02:00 +8°C° 0 mm 6 m/s 743 mmHg 84%
03:00 +7°C° 0 mm 6 m/s 743 mmHg 85%
04:00 +5°C° 0 mm 6 m/s 744 mmHg 85%
05:00 +5°C° 0 mm 5 m/s 744 mmHg 86%
06:00 +6°C° 0 mm 5 m/s 744 mmHg 82%
07:00 +7°C° 0 mm 6 m/s 745 mmHg 78%
08:00 +8°C° 0 mm 6 m/s 745 mmHg 74%
09:00 +9°C° 0 mm 6 m/s 745 mmHg 69%
10:00 +10°C° 0 mm 6 m/s 745 mmHg 63%
11:00 +13°C° 0 mm 6 m/s 745 mmHg 58%
12:00 +13°C° 0 mm 6 m/s 745 mmHg 55%
13:00 +14°C° 0 mm 6 m/s 745 mmHg 53%
14:00 +15°C° 0 mm 6 m/s 745 mmHg 50%
15:00 +14°C° 0 mm 5 m/s 746 mmHg 55%
16:00 +13°C° 0 mm 5 m/s 746 mmHg 60%
17:00 +12°C° 0 mm 5 m/s 746 mmHg 65%
18:00 +11°C° 0 mm 4 m/s 746 mmHg 70%
19:00 +10°C° 0 mm 3 m/s 746 mmHg 75%
20:00 +8°C° 0 mm 2 m/s 746 mmHg 80%
21:00 +8°C° 0 mm 2 m/s 747 mmHg 81%
22:00 +7°C° 0 mm 2 m/s 747 mmHg 82%
23:00 +6°C° 0 mm 2 m/s 747 mmHg 83%

22 Mai, Sâmbătă

Timp Temperatura Precipitaţii Vânt Presiune Umiditate
00:00 +6°C° 0 mm 2 m/s 747 mmHg 85%
01:00 +5°C° 0 mm 2 m/s 746 mmHg 87%
02:00 +5°C° 0 mm 2 m/s 746 mmHg 89%
03:00 +5°C° 0 mm 2 m/s 746 mmHg 88%
04:00 +5°C° 0 mm 2 m/s 746 mmHg 88%
05:00 +5°C° 0 mm 2 m/s 746 mmHg 87%
06:00 +7°C° 0 mm 3 m/s 746 mmHg 81%
07:00 +9°C° 0 mm 3 m/s 746 mmHg 75%
08:00 +11°C° 0 mm 3 m/s 746 mmHg 70%
09:00 +12°C° 0 mm 3 m/s 746 mmHg 65%
10:00 +13°C° 0 mm 4 m/s 746 mmHg 60%
11:00 +15°C° 0 mm 4 m/s 746 mmHg 55%
12:00 +15°C° 0 mm 4 m/s 746 mmHg 56%
13:00 +17°C° 0 mm 4 m/s 746 mmHg 58%
14:00 +17°C° 0 mm 4 m/s 746 mmHg 59%
15:00 +17°C° 0.1 mm 4 m/s 746 mmHg 61%
16:00 +17°C° 0.1 mm 4 m/s 746 mmHg 62%
17:00 +17°C° 0.1 mm 3 m/s 745 mmHg 64%
18:00 +16°C° 0 mm 3 m/s 745 mmHg 70%
19:00 +14°C° 0 mm 3 m/s 745 mmHg 75%
20:00 +12°C° 0 mm 3 m/s 745 mmHg 80%
21:00 +12°C° 0 mm 3 m/s 745 mmHg 79%
22:00 +11°C° 0 mm 4 m/s 746 mmHg 78%
23:00 +11°C° 0 mm 4 m/s 746 mmHg 78%

23 Mai, Duminică

Timp Temperatura Precipitaţii Vânt Presiune Umiditate
00:00 +11°C° 0 mm 4 m/s 746 mmHg 76%
01:00 +11°C° 0 mm 4 m/s 746 mmHg 75%
02:00 +11°C° 0 mm 4 m/s 746 mmHg 73%
03:00 +11°C° 0 mm 4 m/s 745 mmHg 75%
04:00 +11°C° 0 mm 4 m/s 745 mmHg 76%
05:00 +10°C° 0 mm 4 m/s 745 mmHg 78%
06:00 +11°C° 0 mm 4 m/s 745 mmHg 78%
07:00 +12°C° 0 mm 4 m/s 745 mmHg 77%
08:00 +13°C° 0 mm 5 m/s 745 mmHg 77%
09:00 +13°C° 0.1 mm 5 m/s 745 mmHg 77%
10:00 +14°C° 0.1 mm 5 m/s 745 mmHg 76%
11:00 +15°C° 0.1 mm 6 m/s 745 mmHg 75%
12:00 +15°C° 0.5 mm 5 m/s 745 mmHg 77%
13:00 +15°C° 0.5 mm 5 m/s 745 mmHg 79%
14:00 +14°C° 0.5 mm 5 m/s 745 mmHg 81%
15:00 +14°C° 0.3 mm 5 m/s 745 mmHg 81%
16:00 +14°C° 0.3 mm 4 m/s 745 mmHg 80%
17:00 +13°C° 0.3 mm 4 m/s 745 mmHg 80%
18:00 +12°C° 0 mm 3 m/s 745 mmHg 84%
19:00 +11°C° 0 mm 3 m/s 746 mmHg 87%
20:00 +12°C° 0 mm 2 m/s 746 mmHg 90%
21:00 +10°C° 0 mm 2 m/s 746 mmHg 91%
22:00 +10°C° 0 mm 1 m/s 747 mmHg 91%
23:00 +10°C° 0 mm 1 m/s 747 mmHg 92%
Arată mai mult

Formular de consimțământ

Meteoprog și furnizorii noștri de servicii pot stoca și accesa date personale, precum cookies, identificatori de dispozitiv sau alte tehnologii similare pe dispozitivul dumneavoastră și procesa astfel de date pentru a personaliza conținutul și reclamele, dar și pentru a oferi caracteristici de social media și pentru a analiza traficul.

  • Stocarea și/sau accesarea informațiilor pe dispozitivul dumneavoastră

    Cookies, identificatori de dispozitiv sau alte informații pot fi stocate sau accesate pe dispozitiv în scopurile indicate mai sus.

  • Reclame și conținut personalizat, evaluarea reclamelor și a conținutului, informații despre audiențe și dezvoltarea produselor

    Reclamele și conținutul pot fi personalizate pe baza unui profil. Pot fi adăugate date suplimentare pentru a personaliza mai bine reclamele și conținutul. Performanța reclamelor și conținutului poate fi măsurată. Pot fi obținute informații despre utilizatorii care au văzut reclamele și conținutul. Aceste date pot fi utilizate pentru a dezvolta sau îmbunătăți experiența utilizatorilor, sistemele și software-ul.

Dând clic pe ‘Sunt de acord’, permiteți utilizarea cookie-urilor menționate, a identificatorilor de dispozitiv, balizelor web sau altor tehnologii similare. Setările pot fi modificate din browser-ul dispozitivului dumneavoastră.

În anumite scopuri, interesele legitime pot prima asupra consimțământului. Puteți citi mai multe informații în acest sens în Politica privind Confidențialitatea Datelor și Cookie.